This demonstration page uses our WeatherBlox Daily Observations layout. Learn more.

Left ArrowRight Arrow

40.92945, -100.16068

Hourly Observations for May 16, 2022

Temp ( °F °C ) Dew Point ( °F °C ) Humidity (%) Winds ( mph kmh ) Pressure ( in mb ) Visibility ( mi km ) Precip ( " mm )
12:15 am 00:15 Clear 54 12 51 10.3 89 89 NNE 5 7 30.09 1019 10 16 0.00 0.00
12:35 am 00:35 Clear 53 11.5 50 9.8 89 89 NNE 6 9 30.10 1019 10 16 0.00 0.00
12:55 am 00:55 Clear 53 11.6 49 9.6 88 88 Calm 30.10 1019 10 16 0.00 0.00
1:15 am 01:15 Clear 52 11.2 49 9.6 90 90 SW 6 9 30.10 1019 10 16 0.00 0.00
1:35 am 01:35 Clear 50 9.9 47 8.4 90 90 Calm 30.11 1020 10 16 0.00 0.00
1:55 am 01:55 Clear 53 11.8 49 9.7 87 87 SW 3 6 30.09 1019 10 16 0.00 0.00
2:15 am 02:15 Clear 51 10.5 49 9.4 93 93 Calm 30.10 1019 10 16 0.00 0.00
2:35 am 02:35 Clear 50 9.9 48 9 94 94 Calm 30.10 1019 10 16 0.00 0.00
2:55 am 02:55 Clear 50 10.2 49 9.5 95 95 Calm 30.09 1019 10 16 0.00 0.00
3:15 am 03:15 Clear 50 10.1 49 9.3 95 95 Calm 30.08 1019 10 16 0.00 0.00
3:35 am 03:35 Clear 50 9.9 49 9.2 95 95 Calm 30.09 1019 10 16 0.00 0.00
3:55 am 03:55 Clear 50 10.1 49 9.2 94 94 Calm 30.09 1019 10 16 0.00 0.00
4:15 am 04:15 Clear 50 10 48 9.1 94 94 S 3 6 30.10 1019 10 16 0.00 0.00
4:35 am 04:35 Clear 50 9.9 49 9.3 96 96 SSE 3 6 30.10 1019 10 16 0.00 0.00
4:55 am 04:55 Clear 50 9.8 49 9.2 96 96 Calm 30.09 1019 7 11 0.00 0.00
5:15 am 05:15 Clear 47 8.5 46 7.9 96 96 Calm 30.11 1019 10 16 0.00 0.00
5:35 am 05:35 Clear 48 8.7 47 8.2 97 97 Calm 30.09 1019 10 16 0.00 0.00
5:55 am 05:55 Clear 48 8.9 47 8.4 97 97 Calm 30.09 1019 7 11 0.00 0.00
6:15 am 06:15 Clear with Mist and Fog 47 8.6 47 8.2 97 97 Calm 30.09 1019 5 8 0.00 0.00
6:35 am 06:35 Sunny with Mist and Fog 48 8.7 47 8.3 97 97 Calm 30.09 1019 5 8 0.00 0.00
6:55 am 06:55 Sunny 48 8.8 47 8.4 97 97 Calm 30.10 1019 7 11 0.00 0.00
7:15 am 07:15 Sunny 49 9.3 48 8.9 97 97 Calm 30.10 1019 7 11 0.00 0.00
7:35 am 07:35 Sunny 52 11.3 51 10.6 96 96 WSW 3 6 30.09 1019 7 11 0.00 0.00
7:55 am 07:55 Sunny 57 14 51 10.3 79 79 SW 9 15 30.06 1018 10 16 0.00 0.00
8:15 am 08:15 Sunny 59 14.9 51 10.7 76 76 SW 8 13 30.06 1018 10 16 0.00 0.00
8:35 am 08:35 Sunny 61 16 51 10.4 70 70 SSW 10 17 30.05 1017 10 16 0.00 0.00
8:55 am 08:55 Sunny 62 16.9 50 10.2 65 65 SSW 9 15 30.04 1017 10 16 0.00 0.00
9:15 am 09:15 Sunny 64 17.8 50 10.1 61 61 SSW 13 20 30.03 1017 10 16 0.00 0.00
9:35 am 09:35 Sunny 66 18.7 51 10.5 59 59 SSW 13 20 30.02 1017 10 16 0.00 0.00
9:55 am 09:55 Sunny 67 19.5 50 9.9 54 54 SSW 14 22 30.02 1016 10 16 0.00 0.00
10:15 am 10:15 Sunny 68 20 50 10.2 53 53 SSW 13 20 30.00 1016 10 16 0.00 0.00
10:35 am 10:35 Sunny 69 20.4 50 10 51 51 SSW 16 26 29.99 1016 10 16 0.00 0.00
10:55 am 10:55 Sunny 70 21 50 9.9 49 49 SSW 16 26 29.98 1015 10 16 0.00 0.00
11:15 am 11:15 Sunny 71 21.7 51 10.8 50 50 SSW 13 20 29.97 1015 10 16 0.00 0.00
11:35 am 11:35 Sunny 72 22.2 51 10.3 47 47 SSW 16 26 29.96 1015 10 16 0.00 0.00
11:55 am 11:55 Sunny 73 22.8 50 10.2 45 45 SSW 14 22 29.95 1014 10 16 0.00 0.00
12:15 pm 12:15 Sunny 74 23.2 50 10.1 44 44 SSW 14 22 29.93 1014 10 16 0.00 0.00
12:35 pm 12:35 Sunny 74 23.6 50 10.2 43 43 SSW 15 24 29.92 1013 10 16 0.00 0.00
12:55 pm 12:55 Sunny 76 24.3 50 10.2 41 41 SSW 17 28 29.90 1012 10 16 0.00 0.00
1:15 pm 13:15 Sunny 76 24.5 50 9.9 40 40 S 16 26 29.87 1012 10 16 0.00 0.00
1:35 pm 13:35 Sunny 77 24.8 50 9.9 39 39 S 16 26 29.86 1011 10 16 0.00 0.00
1:55 pm 13:55 Sunny 77 25.1 50 9.9 38 38 S 18 30 29.85 1011 10 16 0.00 0.00
2:15 pm 14:15 Sunny 78 25.6 51 10.3 38 38 S 18 30 29.84 1010 10 16 0.00 0.00
2:35 pm 14:35 Sunny 79 25.9 50 10.1 37 37 S 16 26 29.83 1010 10 16 0.00 0.00
2:55 pm 14:55 Sunny 79 26.1 50 9.8 36 36 S 18 30 29.81 1010 10 16 0.00 0.00
3:15 pm 15:15 Sunny 80 26.5 50 9.8 35 35 S 14 22 29.80 1009 10 16 0.00 0.00
3:35 pm 15:35 Sunny 80 26.6 50 9.8 35 35 S 18 30 29.79 1009 10 16 0.00 0.00
3:55 pm 15:55 Sunny 80 26.7 50 10.1 35 35 S 17 28 29.78 1008 10 16 0.00 0.00
4:15 pm 16:15 Sunny 80 26.8 51 10.5 36 36 S 16 26 29.78 1008 10 16 0.00 0.00
4:35 pm 16:35 Sunny 80 26.9 51 10.5 36 36 S 16 26 29.76 1008 10 16 0.00 0.00
4:55 pm 16:55 Sunny 81 27 49 9.7 34 34 S 22 35 29.75 1008 10 16 0.00 0.00
5:15 pm 17:15 Sunny 81 27 49 9.5 33 33 S 18 30 29.74 1007 10 16 0.00 0.00
5:35 pm 17:35 Sunny 80 26.9 49 9.6 34 34 S 22 35 29.73 1007 10 16 0.00 0.00
5:55 pm 17:55 Sunny 80 26.7 49 9.6 34 34 S 21 33 29.73 1007 10 16 0.00 0.00
6:15 pm 18:15 Sunny 80 26.6 49 9.7 35 35 SSE 21 33 29.73 1007 10 16 0.00 0.00
6:35 pm 18:35 Sunny 80 26.4 49 9.6 35 35 S 20 31 29.72 1006 10 16 0.00 0.00
6:55 pm 18:55 Sunny 79 26.1 48 9 34 34 SSE 24 39 29.72 1006 10 16 0.00 0.00
7:15 pm 19:15 Sunny 77 25 48 9 36 36 SSE 20 31 29.72 1006 10 16 0.00 0.00
7:35 pm 19:35 Sunny 77 24.9 48 9.1 37 37 SSE 20 31 29.72 1006 10 16 0.00 0.00
7:55 pm 19:55 Sunny 76 24.6 48 8.9 37 37 SSE 20 31 29.70 1006 10 16 0.00 0.00
8:15 pm 20:15 Sunny 75 23.9 47 8.5 38 38 SSE 18 30 29.71 1006 10 16 0.00 0.00
8:35 pm 20:35 Sunny 74 23.1 47 8.3 39 39 SSE 16 26 29.73 1007 10 16 0.00 0.00
8:55 pm 20:55 Clear 72 22.4 47 8.1 40 40 SSE 15 24 29.74 1007 10 16 0.00 0.00
9:15 pm 21:15 Clear 71 21.7 47 8.2 42 42 SSE 14 22 29.75 1007 10 16 0.00 0.00
9:35 pm 21:35 Clear 71 21.4 47 8.6 44 44 SSE 15 24 29.76 1008 10 16 0.00 0.00
9:55 pm 21:55 Clear 70 21 47 8.5 45 45 SSE 16 26 29.76 1008 10 16 0.00 0.00
10:15 pm 22:15 Clear 69 20.7 47 8.5 46 46 SSE 16 26 29.78 1008 10 16 0.00 0.00
10:35 pm 22:35 Clear 69 20.6 47 8.2 45 45 SSE 16 26 29.79 1009 10 16 0.00 0.00
10:55 pm 22:55 Clear 68 20.2 47 8.5 47 47 SSE 14 22 29.80 1009 10 16 0.00 0.00
11:15 pm 23:15 Clear 68 20 47 8.4 47 47 ESE 5 7 29.83 1010 10 16 0.00 0.00
11:35 pm 23:35 Clear with Nearby Thunderstorms 65 18.4 49 9.6 57 57 NW 16 26 29.92 1013 10 16 0.00 0.00
11:55 pm 23:55 Partly Cloudy with Nearby Thunderstorms 67 19.2 49 9.4 53 53 W 3 6 29.91 1013 10 16 0.00 0.00

Powered by AerisWeather